Flag for Italy Weather past 2 weeks in Albenga, Italy

Now
46 °F

Clear.


Feels Like: 39 °F
Forecast: 38 / 52 °F
Wind: 17 mph from North

Location: Capo Mele

Current Time: Jan 26, 2015 at 12:20:23 AM

Latest Report: Jan 25, 2015 at 11:00 PM


Visibility: 31 mi

Pressure: 30.12 "Hg

Humidity: 13%

Dew point: -2 °F

Location of AlbengaLocation

Historic Weather in Albenga — Graph

°F

Albenga temperature yesterday

Maximum temperature yesterday: 58 °F (at 2:00 PM)
Minimum temperature yesterday: 46 °F (at 11:00 PM)
Average temperature yesterday: 50 °F

Past Weeks' High & Low Weather Summary

 TemperatureHumidityPressure
High63 °F (Jan 11, 3:00 PM)87% (Jan 13, 8:00 PM)30.44 "Hg (Jan 13, 8:00 PM)
Low42 °F (Jan 22, 3:00 AM)13% (Jan 25, 11:00 PM)29.67 "Hg (Jan 21, 6:00 PM)
Average51 °F56%29.97 "Hg
* Reported Jan 10 11:00 PM — Jan 25 11:00 PM, Albenga, Weather by CustomWeather, © 2014

Note: Actual official high and low records may vary slightly from our data, if they occured in-between our weather recording intervals... More about our weather records

Advertising

Albenga weather history for previous 24 hours

 ConditionsComfort  
Time TempWeatherWind HumidityBarometerVisibility
11:00 PM
Jan 25
46 °FClear.17 mph13%30.12 "Hg31 mi
10:00 PM46 °FClear.20 mph14%30.14 "Hg31 mi
9:00 PM47 °FClear.18 mph14%30.13 "Hg31 mi
8:00 PM48 °FClear.18 mph16%30.11 "Hg31 mi
7:00 PM49 °FClear.15 mph18%30.10 "Hg31 mi
6:00 PM49 °FClear.14 mph18%30.08 "Hg31 mi
5:00 PM54 °FSunny.15 mph18%30.05 "Hg31 mi
4:00 PM55 °FSunny.18 mph17%30.04 "Hg31 mi
3:00 PM56 °FPassing clouds.21 mph17%30.02 "Hg31 mi
2:00 PM58 °FPassing clouds.23 mph17%30.01 "Hg31 mi
1:00 PM55 °FPassing clouds.21 mph17%30.01 "Hg31 mi
12:00 PM55 °FSunny.21 mph19%30.02 "Hg31 mi
11:00 AM54 °FPassing clouds.23 mph20%30.01 "Hg31 mi
10:00 AM52 °FPassing clouds.26 mph24%29.99 "Hg31 mi
9:00 AM49 °FPassing clouds.28 mph27%29.97 "Hg31 mi
8:00 AM48 °FPassing clouds.30 mph28%29.96 "Hg12 mi
7:00 AM47 °FClear.26 mph26%29.93 "Hg12 mi
6:00 AM47 °FClear.24 mph21%29.91 "Hg12 mi
5:00 AM47 °FClear.20 mph20%29.90 "Hg12 mi
3:00 AM48 °FClear.29 mph21%29.87 "Hg12 mi
2:00 AM49 °FClear.16 mph21%29.87 "Hg12 mi
1:00 AM49 °FClear.22 mph22%29.86 "Hg12 mi
12:00 AM50 °FClear.20 mph29%29.83 "Hg12 mi
Weather by CustomWeather, © 2014

See weather overviewHow to use our weather pages